Flag for Germany Weather past 2 weeks in Varel, Lower Saxony, Germany

Now
41 °F

Passing clouds.


Feels Like: 32 °F
Forecast: 37 / 43 °F
Wind: 21 mph from Southwest

Location: Wittmundhaven

Current Time: Mar 31, 2015 at 5:58:05 AM

Latest Report: Mar 31, 2015 at 5:20 AM


Visibility: 4 mi

Pressure: 29.03 "Hg

Humidity: 93%

Dew point: 39 °F

Location of VarelLocation

Historic Weather in Varel — Graph

°F

Varel temperature yesterday

Maximum temperature yesterday: 45 °F (at 11:20 AM)
Minimum temperature yesterday: 39 °F (at 8:20 AM)
Average temperature yesterday: 42 °F

Past Weeks' High & Low Weather Summary

 TemperatureHumidityPressure
High57 °F (Mar 17, 3:20 PM)100% (Mar 18, 5:20 AM)30.42 "Hg (Mar 18, 5:20 AM)
Low30 °F (Mar 23, 4:20 AM)31% (Mar 19, 3:20 PM)28.97 "Hg (Mar 29, 7:20 PM)
Average42 °F81%29.96 "Hg
* Reported Mar 16 3:20 AM — Mar 31 4:20 AM, Varel, Weather by CustomWeather, © 2015

Note: Actual official high and low records may vary slightly from our data, if they occured in-between our weather recording intervals... More about our weather records

Advertising

Varel weather history for previous 24 hours

 ConditionsComfort  
Time TempWeatherWind HumidityBarometerVisibility
4:20 AM
Tue, Mar 31
37 °FPassing clouds.22 mph93%29.12 "Hg4 mi
3:48 AM37 °FLight rain. Passing clouds.21 mph93%29.18 "Hg5 mi
3:20 AM37 °FRain. Passing clouds.18 mph93%29.24 "Hg4 mi
2:20 AM37 °FPassing clouds.20 mph87%29.39 "Hg4 mi
1:20 AM41 °FPassing clouds.21 mph66%29.47 "HgN/A
12:20 AM41 °FPartly cloudy.13 mph70%29.53 "HgN/A
11:20 PM
Mon, Mar 30
41 °FPassing clouds.14 mph76%29.59 "HgN/A
10:20 PM41 °FPassing clouds.13 mph76%29.62 "HgN/A
9:20 PM43 °FPassing clouds.14 mph71%29.65 "HgN/A
8:20 PM43 °FScattered clouds.20 mph71%29.68 "HgN/A
7:20 PM43 °FScattered clouds.23 mph66%29.68 "HgN/A
6:20 PM43 °FScattered clouds.28 mph66%29.65 "HgN/A
5:20 PM45 °FScattered clouds.26 mph61%29.65 "HgN/A
4:20 PM43 °FSprinkles. Partly sunny.32 mph66%29.62 "Hg3 mi
3:20 PM45 °FScattered clouds.32 mph66%29.56 "HgN/A
2:20 PM45 °FScattered clouds.29 mph66%29.53 "HgN/A
1:20 PM45 °FScattered clouds.26 mph66%29.47 "HgN/A
12:20 PM45 °FScattered clouds.30 mph66%29.45 "HgN/A
11:20 AM45 °FScattered clouds.32 mph71%29.42 "HgN/A
10:20 AM41 °FBroken clouds.29 mph76%29.36 "Hg6 mi
9:20 AM41 °FPartly sunny.26 mph87%29.33 "HgN/A
9:02 AM39 °FSprinkles. Broken clouds.28 mph93%29.30 "Hg4 mi
8:20 AM39 °FSprinkles. Broken clouds.25 mph87%29.30 "Hg4 mi
8:01 AM41 °FRain showers. Fog.30 mph81%29.30 "Hg2 mi
7:20 AM41 °FSprinkles. Passing clouds.26 mph81%29.27 "HgN/A
6:20 AM41 °FPassing clouds.23 mph81%29.24 "HgN/A
5:55 AM41 °FSnow flurries. Passing clouds.28 mph81%29.24 "Hg5 mi
5:20 AM41 °FPartly cloudy.28 mph87%29.21 "HgN/A
Weather by CustomWeather, © 2015

See weather overviewHow to use our weather pages